STARLINK-31676, 59900

Orbit data source: Space-Track

STARLINK-31676, 59900 is a payload satellite owned by SpaceX/Seattle (US) in LEO that was launched on Tue, 28 May 2024 UTC via an FALCON 9 launch vehicle from the Air Force Eastern Test Range (AFETR). Payload-class satellites include a variety of spacecraft equipped with specific instruments for various scientific and technological missions. These include communications satellites like Starlink; space stations such as the ISS; scientific satellites like the Hubble; Earth observation satellites from companies like Planet Labs, Umbra, and HawkEye 360; GPS; miniature CubeSats for education and research; and military/defense satellites.

Loading next visibility...
Identifier
59900, 2024-100R
Orbit
LEO
Country
Flag of USUS
Related business
Manufacturer
SpaceX/Seattle
Mission
Operational Commercial Communications
Bus & Motor
STARLINK V2M, Unknown motor
Mass
730 kg wet, ~700 kg dry
Launch date (UTC)
2024-05-28 (2 years ago)
Launch vehicle
FALCON 9
Launch site
Air Force Eastern Test Range (AFETR)
Object type
Payload
Rocket body
Debris
Shape & HBR
Box + 2 Pan, 17.7 m
Radar Cross Section
33.884 m², Large (>1 m²)

Expand to show TLE details & history
Last TLE update: 8 hours ago

TLE from 8 hours ago
0 STARLINK-31676
1 59900U 24100R   26126.41101343  .00000925  00000-0  43155-4 0  9992
2 59900  43.0027 159.5017 0001178 247.9643 112.1083 15.27569843109872
Epoch: 2026-05-06T09:51Z
TLE epoch observation values (Epoch: 2026-05-06T09:51:51.560Z)
Latitude
-0.00005°
Longitude
147.26491°
Altitude
483.159 km
Speed
7.625 km/s
True Right ascension
10h 38m 00s
True Declination
0° 00' 00"
Sunlit
Object was in full shadow at epoch
Visualization orbit readout
Latitude
Unknown
Longitude
Unknown
Altitude
Unknown
Speed
Unknown
Apparent Right ascension
Unknown
Apparent Declination
Unknown
Sunlit
N/A
Visualization observer readout
Local Sidereal Time
02:00:42
Azimuth
Unknown
Elevation
Unknown
Doppler factor
Unknown
Orbital elements
Apogee altitude
485.833 km
Perigee altitude
484.216 km
Semi-major axis
6,863.161 km
Eccentricity
0.00012
Inclination
43.0027°
RAAN
159.5017°
Arg. of periapsis
247.9643°
True anomaly
112.12081°
Mean anomaly
112.1083°
Eccentric anomaly
112.11455°
Mean motion
3.81731 °/min
Orbital period
94.31 mins
BSTAR
0.000043155
Loading maneuver chart data...
Computing Atmospheric mass density...
Loading historical data...
Loading historical data...
Loading historical data...
Loading historical data...
Loading historical data...
Loading historical data...
Loading historical data...

Documentation

Showing up to 5 results
|